Logansport, IN

8:53 PM EDT on September 24, 2017 (GMT -0400)
Logansport Municipal

Weather History for KGGP - December, 2012

Change the Weather History Date:

Sunday, December 2, 2012

  Actual Average Record
Temperature  
Mean Temperature 56 °F -  
Max Temperature 60 °F 42 °F 42 °F (2013)
Min Temperature 51 °F 30 °F 21 °F (2014)
Degree Days  
Heating Degree Days 10    
Growing Degree Days 6 (Base 50)    
Moisture  
Dew Point 52 °F    
Average Humidity 88    
Maximum Humidity 100    
Minimum Humidity 63    
Precipitation  
Precipitation 0.05 in - - ()
Sea Level Pressure  
Sea Level Pressure 30.01 in    
Wind  
Wind Speed 10 mph ()    
Max Wind Speed 18 mph    
Max Gust Speed 24 mph    
Visibility 8.0 miles    
Events Rain    
Averages and records for this station are not official NWS values.
T = Trace of Precipitation, MM = Missing Value Source: Averaged Metar Reports

Daily Weather History Graph

Daily Weather History Graph

Search for Another Location

Airport or City:

Trip Planner

Search our weather history database for the weather conditions in past years. The results will help you decide how hot, cold, wet, or windy it might be!

Date:

Astronomy

Dec. 02, 2012 Rise Set
Actual Time 7:51 AM EST 5:18 PM EST
Civil Twilight 7:21 AM EST 5:48 PM EST
Nautical Twilight 6:47 AM EST 6:22 PM EST
Astronomical Twilight 6:14 AM EST 6:55 PM EST
Moon 9:06 PM EST (12/2) 10:40 AM EST (12/2)
Length of Visible Light 10h 27m
Length of Day
9h 26m
Waning Gibbous, 86% of the Moon is Illuminated
Dec 2
Waning Gibbous
Dec 6
Last Quarter
Dec 13
New
Dec 20
First Quarter
Dec 28
Full

Hourly Weather History & Observations

Time (EST) Temp. Dew Point Humidity Pressure Visibility Wind Dir Wind Speed Gust Speed Precip Events Conditions
12:15 AM 55.4 °F 44.6 °F 67% 30.02 in 10.0 mi South 15.0 mph - N/A   Overcast
12:35 AM 55.4 °F 44.6 °F 67% 30.02 in 10.0 mi South 16.1 mph - N/A   Overcast
12:55 AM 55.4 °F 44.6 °F 67% 30.01 in 10.0 mi South 12.7 mph - N/A   Overcast
1:15 AM 55.4 °F 42.8 °F 63% 30.00 in 10.0 mi South 10.4 mph 16.1 mph N/A   Overcast
1:35 AM 55.4 °F 44.6 °F 67% 29.99 in 10.0 mi South 11.5 mph - N/A   Overcast
1:55 AM 55.4 °F 44.6 °F 67% 29.99 in 10.0 mi South 9.2 mph - N/A   Overcast
2:15 AM 55.4 °F 44.6 °F 67% 29.98 in 10.0 mi South 10.4 mph - N/A   Overcast
2:35 AM 55.4 °F 44.6 °F 67% 29.98 in 10.0 mi South 9.2 mph - N/A   Overcast
2:55 AM 57.2 °F 44.6 °F 63% 29.97 in 10.0 mi SSW 15.0 mph 24.2 mph N/A   Overcast
3:15 AM 57.2 °F 46.4 °F 67% 29.97 in 10.0 mi SSW 16.1 mph - N/A   Overcast
3:35 AM 57.2 °F 46.4 °F 67% 29.97 in 10.0 mi SSW 15.0 mph - N/A   Overcast
3:55 AM 57.2 °F 46.4 °F 67% 29.96 in 10.0 mi SSW 15.0 mph - N/A   Overcast
4:15 AM 57.2 °F 48.2 °F 72% 29.96 in 10.0 mi SSW 16.1 mph 23.0 mph N/A Rain Rain
4:35 AM 55.4 °F 50.0 °F 82% 29.96 in 10.0 mi SSW 15.0 mph 20.7 mph N/A Rain Rain
4:55 AM 55.4 °F 50.0 °F 82% 29.96 in 10.0 mi SSW 18.4 mph 23.0 mph N/A Rain Rain
5:15 AM 53.6 °F 50.0 °F 88% 29.96 in 7.0 mi SSW 13.8 mph - 0.01 in Rain Rain
5:35 AM 53.6 °F 51.8 °F 94% 29.96 in 7.0 mi SSW 15.0 mph - 0.03 in Rain Light Rain
5:55 AM 53.6 °F 51.8 °F 94% 29.96 in 10.0 mi SSW 10.4 mph 17.3 mph 0.03 in Rain Rain
6:15 AM 53.6 °F 51.8 °F 94% 29.96 in 10.0 mi SSW 12.7 mph - N/A Rain Rain
6:35 AM 53.6 °F 51.8 °F 94% 29.96 in 7.0 mi SSW 11.5 mph - 0.02 in Rain Light Rain
6:55 AM 53.6 °F 51.8 °F 94% 29.96 in 10.0 mi SSW 15.0 mph - 0.02 in   Overcast
7:15 AM 53.6 °F 51.8 °F 94% 29.96 in 10.0 mi SSW 12.7 mph - N/A   Overcast
7:35 AM 53.6 °F 51.8 °F 94% 29.97 in 10.0 mi SW 11.5 mph - N/A   Overcast
7:55 AM 53.6 °F 51.8 °F 94% 29.97 in 10.0 mi SSW 11.5 mph - N/A   Overcast
8:15 AM 53.6 °F 51.8 °F 94% 29.98 in 10.0 mi SW 11.5 mph - N/A   Overcast
8:35 AM 53.6 °F 51.8 °F 94% 29.98 in 10.0 mi SW 12.7 mph - N/A   Overcast
8:55 AM 53.6 °F 51.8 °F 94% 29.99 in 10.0 mi SW 11.5 mph - N/A   Overcast
9:15 AM 53.6 °F 51.8 °F 94% 29.99 in 10.0 mi SW 12.7 mph - N/A   Overcast
9:35 AM 53.6 °F 51.8 °F 94% 30.00 in 10.0 mi SW 12.7 mph - N/A   Overcast
9:55 AM 55.4 °F 53.6 °F 94% 30.00 in 10.0 mi SW 11.5 mph - N/A   Overcast
10:15 AM 55.4 °F 53.6 °F 94% 30.00 in 10.0 mi SW 12.7 mph - N/A   Overcast
10:35 AM 55.4 °F 53.6 °F 94% 30.01 in 10.0 mi SW 10.4 mph - N/A   Overcast
10:55 AM 55.4 °F 53.6 °F 94% 30.01 in 10.0 mi SW 11.5 mph - N/A   Overcast
11:15 AM 55.4 °F 53.6 °F 94% 30.01 in 10.0 mi SW 9.2 mph - N/A   Overcast
11:35 AM 57.2 °F 53.6 °F 88% 30.01 in 10.0 mi SW 9.2 mph - N/A   Overcast
11:55 AM 59.0 °F 53.6 °F 82% 30.01 in 10.0 mi WSW 10.4 mph - N/A   Overcast
12:15 PM 59.0 °F 53.6 °F 82% 30.01 in 10.0 mi WSW 9.2 mph - N/A   Overcast
12:35 PM 57.2 °F 53.6 °F 88% 30.01 in 10.0 mi WSW 8.1 mph - N/A   Overcast
12:55 PM 59.0 °F 53.6 °F 82% 30.00 in 10.0 mi WSW 6.9 mph - N/A   Overcast
1:15 PM 59.0 °F 53.6 °F 82% 29.99 in 10.0 mi WSW 12.7 mph - N/A   Overcast
1:35 PM 59.0 °F 53.6 °F 82% 29.99 in 10.0 mi WSW 10.4 mph - N/A   Overcast
1:55 PM 59.0 °F 53.6 °F 82% 29.99 in 10.0 mi WSW 11.5 mph - N/A   Overcast
2:15 PM 59.0 °F 53.6 °F 82% 30.00 in 10.0 mi WSW 11.5 mph - N/A   Overcast
2:35 PM 59.0 °F 55.4 °F 88% 30.00 in 10.0 mi WSW 9.2 mph - N/A   Overcast
2:55 PM 60.8 °F 55.4 °F 82% 30.00 in 10.0 mi WSW 9.2 mph - N/A   Overcast
3:15 PM 60.8 °F 55.4 °F 82% 30.01 in 10.0 mi WSW 6.9 mph - N/A   Overcast
3:35 PM 59.0 °F 55.4 °F 88% 30.01 in 10.0 mi WSW 6.9 mph - N/A   Overcast
3:55 PM 59.0 °F 53.6 °F 82% 30.02 in 10.0 mi West 4.6 mph - N/A   Overcast
4:15 PM 59.0 °F 55.4 °F 88% 30.02 in 10.0 mi WSW 4.6 mph - N/A   Overcast
4:35 PM 59.0 °F 55.4 °F 88% 30.03 in 7.0 mi Calm Calm - N/A   Overcast
4:55 PM 57.2 °F 55.4 °F 94% 30.03 in 7.0 mi Calm Calm - N/A   Overcast
5:15 PM 57.2 °F 55.4 °F 94% 30.03 in 7.0 mi Calm Calm - N/A   Overcast
5:35 PM 57.2 °F 55.4 °F 94% 30.03 in 7.0 mi Calm Calm - N/A   Overcast
5:55 PM 55.4 °F 53.6 °F 94% 30.04 in 7.0 mi Calm Calm - N/A   Overcast
6:15 PM 53.6 °F 53.6 °F 100% 30.04 in 7.0 mi ESE 4.6 mph - N/A   Overcast
6:35 PM 53.6 °F 53.6 °F 100% 30.04 in 5.0 mi ESE 4.6 mph - N/A   Overcast
6:55 PM 53.6 °F 53.6 °F 100% 30.05 in 5.0 mi East 3.5 mph - N/A   Mostly Cloudy
7:15 PM 53.6 °F 51.8 °F 94% 30.05 in 4.0 mi ESE 3.5 mph - N/A   Mostly Cloudy
7:35 PM 53.6 °F 51.8 °F 94% 30.07 in 3.0 mi ESE 3.5 mph - N/A   Overcast
7:55 PM 53.6 °F 53.6 °F 100% 30.07 in 4.0 mi Calm Calm - N/A   Overcast
8:15 PM 53.6 °F 53.6 °F 100% 30.08 in 4.0 mi Calm Calm - N/A   Overcast
8:35 PM 53.6 °F 53.6 °F 100% 30.08 in 3.0 mi Calm Calm - N/A   Mostly Cloudy
8:55 PM 51.8 °F 51.8 °F 100% 30.08 in 4.0 mi SSE 4.6 mph - N/A   Overcast
9:15 PM 51.8 °F 51.8 °F 100% 30.09 in 3.0 mi SSE 5.8 mph - N/A   Mostly Cloudy
9:35 PM 51.8 °F 51.8 °F 100% 30.09 in 3.0 mi South 4.6 mph - N/A   Overcast
9:55 PM 51.8 °F 51.8 °F 100% 30.09 in 3.0 mi South 3.5 mph - N/A   Overcast
10:15 PM 51.8 °F 51.8 °F 100% 30.09 in 2.5 mi SSE 4.6 mph - N/A   Overcast
10:35 PM 51.8 °F 51.8 °F 100% 30.08 in 4.0 mi South 6.9 mph - N/A   Mostly Cloudy
10:55 PM 51.8 °F 50.0 °F 94% 30.09 in 2.5 mi South 4.6 mph - N/A   Scattered Clouds
11:15 PM 51.8 °F 51.8 °F 100% 30.09 in 2.0 mi South 6.9 mph - N/A   Overcast
11:35 PM 51.8 °F 51.8 °F 100% 30.09 in 2.5 mi South 6.9 mph - N/A   Overcast
11:55 PM 51.8 °F 51.8 °F 100% 30.09 in 2.0 mi South 5.8 mph - N/A   Overcast